Content
SEND FEEDBACK

Daily
Averages
Monthly
Summary
United States of America

ST. LOUIS - SAINT LOUIS UNIVERSITY, MISSOURI


Home > North America > United States > Missouri
Elevation: 580 feet     Latitude: 38 38N     Longitude: 090 14W

WEATHER
 
SELECT A DAY
Number of Records: 189,140;   Date Range: 1/1/95 - 10/23/14
 
SHARE

PRINT THIS DATA

[ ← Previous Day ]
WEATHER ALMANAC - FEBRUARY 15, 2013
[ Next Day → ]
[ °C ]   °F
Weather ElementAverageHighLow
Temperature34.9 °F42.1 °F (1:53 am)28.9 °F (11:53 pm)
Dewpoint19.1 °F27 °F (1:53 am)12.9 °F (4:53 pm)
Humidity53.9 %75 % (6:30 am)36 % (4:53 pm)
Barometer30.23 in30.29 in (10:53 am)30.10 in (1:53 am)
Wind Speed11.7 mph17.3 mph (7:53 am)
Wind Gust28.8 mph (9:53 am)
Weather ElementAverage
Visibility10 mi
Wind DirectionNNW (322.1 °)

Weather ElementTotal
Precipitation---
Heating Degree Days29.5 (Base 65)
Averaged from 24 records on February 15, 2013
WEATHER CONDITIONS BREAKOUT
WIND DIRECTION BREAKOUT
WEATHER BY HOUR - FEBRUARY 15, 2013
[ °C ]   °F
Local TimeTemperatureDewpointHumidityBarometerVisibilityWind DirectionWind SpeedGust SpeedPrecipitationEventsConditions
1:53 AM42.1 °F27.0 °F55 %30.10 in10.0 miNW (310°)11.5 mphOvercast
2:53 AM39.9 °F26.1 °F58 %30.10 in10.0 miNW (320°)12.7 mphOvercast
3:53 AM37.9 °F25.0 °F60 %30.12 in10.0 miNorth (350°)10.4 mphClear
4:53 AM34.0 °F26.1 °F73 %30.15 in10.0 miNorth (360°)8.1 mphClear
5:53 AM34.0 °F25.0 °F70 %30.17 in10.0 miNNW (330°)11.5 mphScattered Clouds
6:30 AM33.8 °F26.6 °F75 %30.19 in10.0 miWNW (300°)9.2 mphMostly Cloudy
6:53 AM34.0 °F25.0 °F70 %30.20 in10.0 miNW (310°)10.4 mphOvercast
7:53 AM33.1 °F23.0 °F66 %30.24 in10.0 miNW (320°)17.3 mphOvercast
8:27 AM32.0 °F21.2 °F64 %30.25 in10.0 miNW (320°)17.3 mphScattered Clouds
8:53 AM33.1 °F21.9 °F64 %30.27 in10.0 miNW (310°)17.3 mphOvercast
9:53 AM33.1 °F18.0 °F54 %30.28 in10.0 miNNW (330°)16.1 mph28.8 mphClear
10:53 AM34.0 °F17.1 °F50 %30.29 in10.0 miNW (310°)17.3 mphClear
11:53 AM36.0 °F16.0 °F44 %30.28 in10.0 miNW (310°)16.1 mph21.9 mphClear
12:53 PM37.0 °F14.0 °F39 %30.26 in10.0 miNW (310°)11.5 mphClear
1:53 PM37.9 °F15.1 °F39 %30.25 in10.0 miNNW (330°)8.1 mph16.1 mphClear
2:53 PM37.9 °F14.0 °F38 %30.25 in10.0 miNW (310°)13.8 mphClear
3:53 PM37.9 °F14.0 °F38 %30.25 in10.0 miNW (310°)10.4 mphClear
4:53 PM37.9 °F12.9 °F36 %30.25 in10.0 miNorth (350°)4.6 mphClear
6:53 PM34.0 °F14.0 °F44 %30.26 in10.0 miWNW (300°)10.4 mphClear
7:53 PM32.0 °F16.0 °F52 %30.25 in10.0 miNW (320°)6.9 mphClear
8:53 PM30.9 °F16.0 °F54 %30.26 in10.0 miWNW (300°)5.8 mphClear
9:53 PM33.1 °F15.1 °F48 %30.25 in10.0 miNW (320°)10.4 mphMostly Cloudy
10:53 PM33.1 °F15.1 °F48 %30.25 in10.0 miNNW (340°)10.4 mphOvercast
11:53 PM28.9 °F14.0 °F54 %30.25 in10.0 miNorth (360°)13.8 mphPartly Cloudy
Hourly data recorded from KCPS, located miles away from St. Louis - Saint Louis University, Missouri







STORIES FROM OUR PARTNERS